Regional Weather Roundup
Issued by NWS

Home | Current Version | Previous Version | Text Only | Print | Product List | Glossary Off
Versions: 1 2 3 4 5 6 7 8 9 10 11 12 13 14 15 16 17 18 19 20 21 22 23 24 25 26 27 28 29 30 31 32 33 34 35 36 37 38 39 40 41 42 43 44 45 46 47 48 49 50

714
ASUS43 KOAX 221602
RWRNE

WEATHER ROUNDUP FOR NEBRASKA
NATIONAL WEATHER SERVICE OMAHA NE
1100 AM CDT SUN APR 22 2018

NOTES: SATELLITE DATA IS BEING USED TO AUGMENT CLOUD COVER ABOVE
       12000 FEET.
       "FAIR" INDICATES FEW OR NO CLOUDS BELOW 12,000 FEET WITH NO
       SIGNIFICANT WEATHER AND/OR OBSTRUCTIONS TO VISIBILITY.


NEZ001>004-019>022-054>056-221700-
NEBRASKA PANHANDLE

CITY           SKY/WX    TMP DP  RH WIND       PRES   REMARKS
SCOTTSBLUFF    CLOUDY    43  40  89 E5        30.20S
ALLIANCE       CLOUDY    45  41  86 SW7       30.19F
CHADRON        MOSUNNY   49  40  71 SW9       30.18F
GORDON         CLOUDY    43  39  85 SW8       30.20S
KIMBALL        PTSUNNY   43  43 100 S3        30.19S
SIDNEY         PTSUNNY   44  33  65 VRB3      30.20S
$$

NEZ057>060-069>072-079>082-221700-
SOUTHWEST NEBRASKA

CITY           SKY/WX    TMP DP  RH WIND       PRES   REMARKS
NORTH PLATTE   SUNNY     49  38  65 VRB5      30.24S
IMPERIAL       MOSUNNY   46  39  76 CALM      30.23F
LEXINGTON      MOSUNNY   47  40  77 NE6       30.26S
MCCOOK         MOSUNNY   50  40  68 N7        30.24F
OGALLALA       CLOUDY    46  40  80 CALM      30.23S
$$

NEZ005>010-023>029-035>040-094-221700-
NORTH CENTRAL NEBRASKA

CITY           SKY/WX    TMP DP  RH WIND       PRES   REMARKS
VALENTINE      SUNNY     51  38  60 SW7       30.24S
AINSWORTH      SUNNY     49  38  64 SE3       30.25S
BROKEN BOW       N/A     49  39  68 E6        30.25S
O`NEILL        SUNNY     55  36  49 E5        30.26S
ORD            SUNNY     53  35  50 NE7       30.24S
THEDFORD       MOSUNNY   48  37  64 CALM      30.25R
$$

NEZ041-046>049-061>064-073>077-083>087-221700-
SOUTH CENTRAL NEBRASKA

CITY           SKY/WX    TMP DP  RH WIND       PRES   REMARKS
GRAND ISLAND   SUNNY     52  39  61 NE10      30.26R
AURORA         SUNNY     52  36  54 N8        30.24F
HASTINGS       SUNNY     52  39  61 NE12      30.25R
HEBRON         CLOUDY    52  40  64 N9        30.22S
HOLDREGE       PTSUNNY   46  41  82 N7        30.25S
KEARNEY        CLOUDY    49  40  71 NE12      30.26S
YORK             N/A     50  34  53 NE9       30.24S
$$

NEZ011>018-030>034-042>045-221700-
NORTHEAST NEBRASKA

CITY           SKY/WX    TMP DP  RH WIND       PRES   REMARKS
NORFOLK        SUNNY     53  32  44 E6        30.24F
ALBION         SUNNY     56  33  41 N7        30.25S
BLAIR          CLOUDY    57  33  40 N12       30.22F
COLUMBUS       CLOUDY    52  33  48 N8        30.26S
FREMONT        CLOUDY    56  33  41 N7        30.25S
TEKAMAH        CLOUDY    54  35  48 N14       30.26S
WAYNE          SUNNY     53  34  49 NE5       30.27S
$$

NEZ050>053-065>068-078-088>093-221700-
SOUTHEAST NEBRASKA

CITY           SKY/WX    TMP DP  RH WIND       PRES   REMARKS
LINCOLN        CLOUDY    55  35  47 N10       30.23S
OMAHA EPPLEY   PTSUNNY   61  32  33 E9        30.22S
BEATRICE       PTSUNNY   53  37  53 NE7       30.21R
FALLS CITY     MOSUNNY   54  33  45 E12       30.18R
NEBRASKA CITY  CLOUDY    56  35  43 NE9       30.20S
PLATTSMOUTH    PTSUNNY   56  32  40 NE7       30.21S
$$

NEZ044-045-051>053-067-221700-
OMAHA AREA

CITY           SKY/WX    TMP DP  RH WIND       PRES   REMARKS
OMAHA EPPLEY   PTSUNNY   61  32  33 E9        30.22S
BLAIR          CLOUDY    57  33  40 N12       30.22F
FREMONT        CLOUDY    56  33  41 N7        30.25S
MILLARD        SUNNY     59  34  39 E3        30.22S
PLATTSMOUTH    PTSUNNY   56  32  40 NE7       30.21S
$$




USA.gov is the U.S. government's official web portal to all federal, state and local government web resources and services.